This demonstration page uses our WeatherBlox Daily Observations layout. Learn more.

Left ArrowRight Arrow

39.92423, -83.80882

Hourly Observations for September 22, 2015

Temp ( °F °C ) Dew Point ( °F °C ) Humidity (%) Winds ( mph kmh ) Pressure ( in mb ) Visibility ( mi km ) Precip ( " mm )
12:56 am 00:56 Clear 53 11.6 49 9.4 86 86 ENE 6 9 30.13 1020 10 16.0934 0 0
1:56 am 01:56 Clear 51 10.5 49 9.4 93 93 E 3 6 30.13 1020 10 16.0934 0 0
2:56 am 02:56 Clear 51 10.5 50 10 97 97 E 3 6 30.14 1021 10 16.0934 0 0
3:56 am 03:56 Clear 50 10 50 10 100 100 NE 5 7 30.14 1021 10 16.0934 0 0
4:56 am 04:56 Clear 50 10 49 9.4 96 96 NE 5 7 30.15 1021 10 16.0934 0 0
5:56 am 05:56 Clear 49 9.4 48 8.8 96 96 Calm 30.16 1022 10 16.0934 0 0
6:56 am 06:56 Clear 47 8.3 47 8.3 100 100 NE 3 6 30.2 1023 10 16.0934 0 0
7:56 am 07:56 Sunny 49 9.4 49 9.4 100 100 Calm 30.22 1023 10 16.0934 0 0
8:56 am 08:56 Sunny 57 13.8 56 13.3 97 97 ENE 3 6 30.22 1024 10 16.0934 0 0
9:56 am 09:56 Sunny 65 18.3 60 15.5 84 84 ENE 5 7 30.24 1024 10 16.0934 0 0
10:56 am 10:56 Sunny 72 22.2 59 15 64 64 NNE 6 9 30.24 1024 10 16.0934 0 0
11:56 am 11:56 Mostly Sunny 75 23.8 57 13.8 54 54 NNE 3 6 30.23 1024 10 16.0934 0 0
12:56 pm 12:56 Sunny 77 25 55 12.7 46 46 NNE 8 13 30.22 1023 10 16.0934 0 0
1:56 pm 13:56 Mostly Sunny 79 26.1 57 13.8 47 47 NNE 7 11 30.22 1023 10 16.0934 0 0
2:56 pm 14:56 Mostly Sunny 80 26.6 55 12.7 42 42 VRB 3 6 30.2 1023 10 16.0934 0 0
3:56 pm 15:56 Sunny 82 27.7 54 12.2 38 38 ENE 7 11 30.18 1022 10 16.0934 0 0
4:56 pm 16:56 Sunny 82 27.7 55 12.7 40 40 VRB 5 7 30.17 1022 10 16.0934 0 0
5:56 pm 17:56 Sunny 81 27.2 53 11.6 38 38 NE 8 13 30.18 1022 10 16.0934 0 0
6:56 pm 18:56 Sunny 76 24.4 56 13.3 50 50 ENE 6 9 30.19 1023 10 16.0934 0 0
7:56 pm 19:56 Clear 67 19.4 54 12.2 63 63 E 3 6 30.2 1023 10 16.0934 0 0
8:56 pm 20:56 Clear 64 17.7 54 12.2 70 70 E 3 6 30.21 1023 10 16.0934 0 0
9:56 pm 21:56 Clear 60 15.5 54 12.2 81 81 Calm 30.22 1023 10 16.0934 0 0
10:56 pm 22:56 Clear 58 14.4 53 11.6 83 83 Calm 30.22 1023 10 16.0934 0 0
11:56 pm 23:56 Clear 56 13.3 53 11.6 90 90 Calm 30.23 1024 10 16.0934 0 0

Powered by AerisWeather